Change the Weather History Date:

Friday, May 25, 2012

  Actual Average Record
Temperature  
Mean Temperature 60 °F -  
Max Temperature 68 °F 61 °F 71 °F (2005)
Min Temperature 51 °F 38 °F 28 °F (2002)
Degree Days  
Heating Degree Days 6    
Growing Degree Days 10 (Base 50)    
Moisture  
Dew Point 24 °F    
Average Humidity 28    
Maximum Humidity 47    
Minimum Humidity 15    
Precipitation  
Precipitation 0.00 in - - ()
Sea Level Pressure  
Sea Level Pressure 29.92 in    
Wind  
Wind Speed 12 mph (SE)    
Max Wind Speed 31 mph    
Max Gust Speed 50 mph    
Visibility 10 miles    
Events      
Averages and records for this station are not official NWS values.
T = Trace of Precipitation, MM = Missing Value Source: NWS Daily Summary

Daily Weather History Graph

Daily Weather History Graph

Search for Another Location

Airport or City:

Trip Planner

Search our weather history database for the weather conditions in past years. The results will help you decide how hot, cold, wet, or windy it might be!

Date:

Astronomy

May. 25, 2012 Rise Set
Actual Time 5:53 AM MDT 8:23 PM MDT
Civil Twilight 5:23 AM MDT 8:54 PM MDT
Nautical Twilight 4:45 AM MDT 9:31 PM MDT
Astronomical Twilight 4:04 AM MDT 10:13 PM MDT
Moon 9:55 AM MDT (5/25) No Moon Set
Length of Visible Light 15h 30m
Length of Day
14h 29m
Waxing Crescent, 20% of the Moon is Illuminated
May 25
Waxing Crescent
May 28
First Quarter
Jun 4
Full
Jun 11
Last Quarter
Jun 19
New

Hourly Weather History & Observations

Time (MDT) Temp. Dew Point Humidity Pressure Visibility Wind Dir Wind Speed Gust Speed Precip Events Conditions
12:15 AM 55.4 °F 21.2 °F 26% 29.89 in 10.0 mi South 6.9 mph - N/A   Mostly Cloudy
12:35 AM 55.4 °F 23.0 °F 29% 29.88 in 10.0 mi North 3.5 mph - N/A   Mostly Cloudy
12:55 AM 55.4 °F 23.0 °F 29% 29.88 in 10.0 mi ESE 12.7 mph 19.6 mph N/A   Overcast
1:15 AM 55.4 °F 23.0 °F 29% 29.88 in 10.0 mi East 8.1 mph 16.1 mph N/A   Scattered Clouds
1:35 AM 55.4 °F 21.2 °F 26% 29.87 in 10.0 mi SSW 10.4 mph 19.6 mph N/A   Clear
1:55 AM 55.4 °F 21.2 °F 26% 29.87 in 10.0 mi SSE 12.7 mph 21.9 mph N/A   Clear
2:15 AM 53.6 °F 21.2 °F 28% 29.88 in 10.0 mi SE 9.2 mph - N/A   Clear
2:35 AM 53.6 °F 21.2 °F 28% 29.89 in 10.0 mi SSE 4.6 mph - N/A   Clear
2:55 AM 51.8 °F 23.0 °F 33% 29.89 in 10.0 mi South 12.7 mph 19.6 mph N/A   Clear
3:15 AM 51.8 °F 23.0 °F 33% 29.89 in 10.0 mi Calm Calm - N/A   Clear
3:35 AM 51.8 °F 23.0 °F 33% 29.89 in 10.0 mi ESE 6.9 mph - N/A   Clear
3:55 AM 51.8 °F 23.0 °F 33% 29.90 in 10.0 mi ESE 9.2 mph - N/A   Clear
4:35 AM 51.8 °F 26.6 °F 38% 29.90 in 10.0 mi SE 9.2 mph - N/A   Scattered Clouds
4:55 AM 51.8 °F 26.6 °F 38% 29.89 in 10.0 mi ESE 6.9 mph 21.9 mph N/A   Mostly Cloudy
5:15 AM 51.8 °F 26.6 °F 38% 29.89 in 10.0 mi East 8.1 mph - N/A   Overcast
5:35 AM 51.8 °F 28.4 °F 41% 29.89 in 10.0 mi SE 10.4 mph 21.9 mph N/A   Overcast
5:55 AM 51.8 °F 28.4 °F 41% 29.88 in 10.0 mi East 6.9 mph 19.6 mph N/A   Mostly Cloudy
6:15 AM 51.8 °F 30.2 °F 44% 29.90 in 10.0 mi SSE 13.8 mph 20.7 mph N/A   Mostly Cloudy
6:35 AM 51.8 °F 30.2 °F 44% 29.90 in 10.0 mi SSE 9.2 mph - N/A   Mostly Cloudy
6:55 AM 51.8 °F 30.2 °F 44% 29.92 in 10.0 mi SSE 9.2 mph 17.3 mph N/A   Overcast
7:15 AM 51.8 °F 32.0 °F 47% 29.92 in 10.0 mi South 12.7 mph 19.6 mph N/A   Overcast
7:35 AM 51.8 °F 32.0 °F 47% 29.93 in 10.0 mi ESE 12.7 mph 28.8 mph N/A   Overcast
7:55 AM 51.8 °F 32.0 °F 47% 29.93 in 10.0 mi SSE 15.0 mph 20.7 mph N/A   Overcast
8:15 AM 51.8 °F 32.0 °F 47% 29.93 in 10.0 mi East 8.1 mph 23.0 mph N/A   Overcast
8:35 AM 51.8 °F 32.0 °F 47% 29.94 in 10.0 mi South 10.4 mph 26.5 mph N/A   Overcast
8:55 AM 53.6 °F 30.2 °F 41% 29.94 in 10.0 mi ESE 8.1 mph 29.9 mph N/A   Overcast
9:15 AM 53.6 °F 32.0 °F 44% 29.94 in 10.0 mi SE 17.3 mph 33.4 mph N/A   Overcast
9:35 AM 53.6 °F 30.2 °F 41% 29.93 in 10.0 mi SE 23.0 mph 35.7 mph N/A   Overcast
9:55 AM 53.6 °F 30.2 °F 41% 29.94 in 10.0 mi SE 19.6 mph 28.8 mph N/A   Overcast
10:15 AM 55.4 °F 30.2 °F 38% 29.93 in 10.0 mi ESE 16.1 mph 28.8 mph N/A   Overcast
10:35 AM 55.4 °F 30.2 °F 38% 29.92 in 10.0 mi SE 26.5 mph 34.5 mph N/A   Overcast
10:55 AM 55.4 °F 30.2 °F 38% 29.93 in 10.0 mi SE 19.6 mph 26.5 mph N/A   Overcast
11:15 AM 57.2 °F 30.2 °F 36% 29.92 in 10.0 mi SSE 19.6 mph 33.4 mph N/A   Overcast
11:35 AM 59.0 °F 28.4 °F 31% 29.92 in 10.0 mi SSE 21.9 mph 33.4 mph N/A   Mostly Cloudy
11:55 AM 59.0 °F 28.4 °F 31% 29.92 in 10.0 mi SE 26.5 mph 34.5 mph N/A   Scattered Clouds
12:15 PM 60.8 °F 26.6 °F 27% 29.93 in 10.0 mi SSE 13.8 mph 34.5 mph N/A   Mostly Cloudy
12:35 PM 60.8 °F 28.4 °F 29% 29.92 in 10.0 mi SE 20.7 mph 34.5 mph N/A   Mostly Cloudy
12:55 PM 62.6 °F 28.4 °F 27% 29.92 in 10.0 mi SE 16.1 mph 31.1 mph N/A   Mostly Cloudy
1:15 PM 60.8 °F 28.4 °F 29% 29.92 in 10.0 mi SSE 11.5 mph 26.5 mph N/A   Mostly Cloudy
1:35 PM 62.6 °F 28.4 °F 27% 29.93 in 10.0 mi SSE 12.7 mph 21.9 mph N/A   Mostly Cloudy
1:55 PM 60.8 °F 26.6 °F 27% 29.92 in 10.0 mi SSE 27.6 mph 38.0 mph N/A   Mostly Cloudy
2:15 PM 62.6 °F 26.6 °F 26% 29.92 in 10.0 mi SE 17.3 mph 33.4 mph N/A   Overcast
2:35 PM 64.4 °F 23.0 °F 21% 29.90 in 10.0 mi SSE 18.4 mph 29.9 mph N/A   Scattered Clouds
2:55 PM 64.4 °F 23.0 °F 21% 29.92 in 10.0 mi ESE 13.8 mph 31.1 mph N/A   Scattered Clouds
3:15 PM 64.4 °F 23.0 °F 21% 29.92 in 10.0 mi South 8.1 mph 40.3 mph N/A   Mostly Cloudy
3:35 PM 64.4 °F 21.2 °F 19% 29.90 in 10.0 mi SE 24.2 mph 46.0 mph N/A   Mostly Cloudy
3:55 PM 64.4 °F 19.4 °F 18% 29.91 in 10.0 mi SE 23.0 mph 42.6 mph N/A   Mostly Cloudy
4:15 PM 66.2 °F 17.6 °F 15% 29.91 in 10.0 mi SSE 24.2 mph 34.5 mph N/A   Mostly Cloudy
4:35 PM 68.0 °F 17.6 °F 15% 29.90 in 10.0 mi SE 29.9 mph 41.4 mph N/A   Mostly Cloudy
4:55 PM 66.2 °F 17.6 °F 15% 29.90 in 10.0 mi SSE 18.4 mph 39.1 mph N/A   Scattered Clouds
5:15 PM 66.2 °F 19.4 °F 17% 29.91 in 10.0 mi South 18.4 mph 35.7 mph N/A   Scattered Clouds
5:35 PM 68.0 °F 19.4 °F 16% 29.92 in 10.0 mi SE 10.4 mph 28.8 mph N/A   Scattered Clouds
5:55 PM 64.4 °F 17.6 °F 16% 29.92 in 10.0 mi SE 27.6 mph 43.7 mph N/A   Mostly Cloudy
6:15 PM 64.4 °F 19.4 °F 18% 29.92 in 10.0 mi South 9.2 mph 40.3 mph N/A   Mostly Cloudy
6:35 PM 64.4 °F 17.6 °F 16% 29.90 in 10.0 mi SSE 31.1 mph 49.5 mph N/A   Overcast
6:55 PM 64.4 °F 17.6 °F 16% 29.92 in 10.0 mi SE 13.8 mph 35.7 mph N/A   Overcast
7:15 PM 64.4 °F 17.6 °F 16% 29.91 in 10.0 mi South 21.9 mph 35.7 mph N/A   Mostly Cloudy
7:35 PM 64.4 °F 17.6 °F 16% 29.91 in 10.0 mi South 23.0 mph 34.5 mph N/A   Scattered Clouds
7:55 PM 62.6 °F 17.6 °F 18% 29.92 in 10.0 mi SE 21.9 mph 39.1 mph N/A   Clear
8:15 PM 62.6 °F 17.6 °F 18% 29.91 in 10.0 mi SSE 24.2 mph 39.1 mph N/A   Clear
8:35 PM 62.6 °F 17.6 °F 18% 29.92 in 10.0 mi South 12.7 mph 28.8 mph N/A   Clear
8:55 PM 62.6 °F 17.6 °F 18% 29.94 in 10.0 mi SSE 6.9 mph 33.4 mph N/A   Clear
9:15 PM 60.8 °F 17.6 °F 19% 29.94 in 10.0 mi SE 6.9 mph 18.4 mph N/A   Clear
9:35 PM 62.6 °F 17.6 °F 18% 29.95 in 10.0 mi South 11.5 mph 19.6 mph N/A   Clear
9:55 PM 60.8 °F 17.6 °F 19% 29.95 in 10.0 mi East 10.4 mph 31.1 mph N/A   Clear
10:15 PM 60.8 °F 17.6 °F 19% 29.96 in 10.0 mi South 15.0 mph 25.3 mph N/A   Clear
10:35 PM 60.8 °F 17.6 °F 19% 29.97 in 10.0 mi South 16.1 mph 32.2 mph N/A   Clear
10:55 PM 60.8 °F 17.6 °F 19% 29.98 in 10.0 mi SSW 5.8 mph 31.1 mph N/A   Clear
11:15 PM 60.8 °F 17.6 °F 19% 29.99 in 10.0 mi South 10.4 mph 25.3 mph N/A   Clear
11:35 PM 60.8 °F 19.4 °F 20% 29.98 in 10.0 mi SSE 16.1 mph 32.2 mph N/A   Clear
11:55 PM 59.0 °F 19.4 °F 22% 29.99 in 10.0 mi SSW 11.5 mph 28.8 mph N/A   Clear